Location: Azul
(36.7830°S, 59.8500°W)
Time: 01:24:00
(UTC-03:00)

CUBEBUG 2 - Pass Details

Date: 27 October 2021
Orbit: 584 x 697 km, 97.7° (Epoch: 30 November)

Event Time Altitude Azimuth Distance (km) Brightness Sun altitude
Exits shadow 03:05:50 30° 98° (E) 1,107 ? -30.1°
Maximum altitude 03:06:14 30° 109° (ESE) 1,095 ? -30.0°
Drops below altitude 10° 03:10:04 10° 170° (S) 2,011 ? -29.5°
Sets 03:12:30 0° 180° (S) 2,946 ? -29.2°
